Regional Weather Roundup
Issued by NWS Northern Indiana

Home | Current Version | Previous Version | Graphics & Text | Print | Product List | Glossary On
Versions: 1 2 3 4 5 6 7 8 9 10 11 12 13 14 15 16 17 18 19 20 21 22 23 24 25 26 27 28 29 30 31 32 33 34 35 36 37 38 39 40 41 42 43 44 45 46 47 48 49 50
000
ASUS43 KIWX 260500
RWRIWX

KIWX WEATHER ROUNDUP
NATIONAL WEATHER SERVICE NORTHERN INDIANA
100 AM EDT THU MAY 26 2016

NOTE: "FAIR" INDICATES FEW OR NO CLOUDS BELOW 12,000 FEET WITH NO
SIGNIFICANT WEATHER AND/OR OBSTRUCTIONS TO VISIBILITY.

* THESE STATIONS ARE NOT UNDER NWS QUALITY CONTROL. THEY ALSO MAY NOT
  REPORT WEATHER SUCH AS PRECIPITATION OR FOG.

INZ001>027-260600-
NORTHERN INDIANA

CITY           SKY/WX    TMP DP  RH WIND       PRES   REMARKS
SOUTH BEND     CLOUDY    65  62  90 N5        30.01R
GOSHEN         CLOUDY    74  61  63 W8        29.99R
ANGOLA*        CLEAR     72  63  73 SW7       29.99S
FORT WAYNE     CLOUDY    72  62  71 SW8       30.01R

$$
INZ028>050-260600-
CENTRAL INDIANA

CITY           SKY/WX    TMP DP  RH WIND       PRES   REMARKS
LAFAYETTE      CLOUDY    70  62  76 S6        29.99S
KOKOMO*        CLOUDY    72  61  68 SW12      30.01S
MUNCIE*        MOCLDY    73  62  68 SW9       30.02S
INDIANAPOLIS   CLOUDY    70  62  76 SW8       30.01F

$$
MIZ043>046-050>051-056>058-064>065-071>073-077>080-260600-
SOUTHWEST LOWER MICHIGAN

CITY           SKY/WX    TMP DP  RH WIND       PRES   REMARKS
BATTLE CREEK   RAIN      65  64  97 NW13      30.01R FOG
BENTON HARBOR  TSTM      65  63  93 N5        30.00R FOG
COLDWATER*     CLOUDY    74  60  62 SW7       29.99R
HILLSDALE*     CLOUDY    72  56  56 S8        30.00R
HOLLAND        LGT RAIN  65  62  90 CALM      29.98F
GRAND RAPIDS   HVY RAIN  66  63  90 SW10      30.02R FOG
KALAMAZOO      TSTM      67  63  87 NW6       30.02R
STURGIS*       CLOUDY    70  63  77 N8        30.00R
THREE RIVERS*  MOCLDY    67  63  86 NW7       30.02R

$$
OHZ001>008-015>018-024>025-260600-
NORTHWEST OHIO

CITY           SKY/WX    TMP DP  RH WIND       PRES   REMARKS
DEFIANCE       CLOUDY    73  61  65 S7        30.00R
FINDLAY        PTCLDY    69  58  67 S9        30.00F
TOLEDO EXPRESS PTCLDY    71  60  68 S5        29.99S
TOLEDO METCALF CLEAR     71  59  65 S10       30.00F
LIMA           CLOUDY    70  62  76 S6        30.02F

$$
AND FOR LAKE MICHIGAN COASTAL AND OPEN LAKE BUOY OBSERVATIONS

STATION/POSITION TEMP    WIND        PRES    VSBY  WAVE
                 AIR SEA DIR/SP/G                  HT/PER
                 (F)     (DEG/KT/KT) (MB)    (MI)  (FT/S)
CALUMET HARBOR    62     110/  6/  9 1014.2
MICHIGAN CITY     63      50/ 11/ 12   N/A
BURNS HARBOR      63      80/  9/ 11 1015.6F
SAINT JOSEPH      64      10/  5/ 10 1015.9F
SOUTH LAKE BUOY   57 49  130/ 16/ 16 1013.4          1/ 3
4 MI NW BRIDGMAN  62 59   20/ 12/ 16   N/A           2/ 4
MICHIGAN CITY     62 59   80/ 10/ 12   N/A           1/ 3

$$
&&



USA.gov is the U.S. government's official web portal to all federal, state and local government web resources and services.